Tracking 27124 objects as of 31-Mar-2023
HD Live streaming from Space Station
objects crossing your sky now

DELTA 1 R/B(2)

Track DELTA 1 R/B(2) now!


NORAD ID: 15206
Int'l Code: 1984-088F
Perigee: 508.8 km
Apogee: 48,896.8 km
Inclination: 28.8 °
Period: 908.6 minutes
Semi major axis: 31073 km
RCS: 2.318 m2 (large)
Launch date: August 16, 1984
Source: United States (US)
Launch site: AIR FORCE EASTERN TEST RANGE (AFETR)

Note: This is a ROCKET BODY
Your satellite tracking list
Your tracking list is empty




NASA's NSSDC Master Catalog

Two Line Element Set (TLE):
1 15206U 84088F   23089.75638927  .00000094  00000-0  35127-2 0  9994
2 15206  28.7859  22.5966 7785989 214.0181  54.0010  1.58493412222075
Source of the keplerian elements: AFSPC